DW8054 Weather Reports


time (UTC)temp
C
wind
direction
speed
KPH
gust
KPH
rain 1hr
cm
rain 24hr
cm
rain mn
cm
humidity
%
barometer
mb
20260508004537 10 360 0.0 6.4 0.00 0.15 0.00 49 1004.9
20260508003037 10 360 1.6 9.7 0.00 0.15 0.00 47 1004.7
20260508001547 10 360 0.0 6.4 0.00 0.15 0.00 46 1004.4
20260508000035 11 360 1.6 9.7 0.00 0.15 0.00 45 1004.3
20260507234535 11 360 0.0 11.3 0.00 0.15 0.00 45 1004.3
20260507233036 12 360 0.0 11.3 0.00 0.15 0.00 43 1004.2
20260507231534 13 327 1.6 9.7 0.00 0.15 0.00 41 1004.1
20260507230037 13 304 3.2 8.0 0.00 0.15 0.00 40 1003.9
20260507224536 13 240 4.8 14.5 0.00 0.15 0.00 38 1003.8
20260507223033 14 360 4.8 22.5 0.00 0.15 0.00 38 1003.7
20260507221532 15 360 6.4 16.1 0.00 0.15 0.00 37 1003.6
20260507220032 15 320 4.8 19.3 0.00 0.15 0.00 37 1003.5
20260507214531 15 33 3.2 19.3 0.00 0.20 0.00 39 1003.5
20260507213036 15 219 4.8 17.7 0.00 0.20 0.00 36 1003.4
20260507211542 15 169 4.8 16.1 0.00 0.20 0.00 38 1003.5
20260507210028 15 360 6.4 25.7 0.00 0.20 0.00 38 1003.4
20260507204526 14 312 4.8 14.5 0.00 0.36 0.00 42 1003.3
20260507203026 15 290 6.4 17.7 0.00 0.36 0.00 41 1003.3
20260507201535 15 24 1.6 14.5 0.00 0.36 0.00 42 1003.3
20260507200033 15 360 4.8 19.3 0.00 0.36 0.00 42 1003.3
20260507194524 15 291 8.0 24.1 0.00 0.38 0.00 40 1003.5
20260507193025 15 360 3.2 17.7 0.00 0.38 0.00 41 1003.6
20260507191525 15 360 9.7 22.5 0.00 0.38 0.00 40 1003.6
20260507190023 15 72 4.8 20.9 0.00 0.38 0.00 40 1003.7
20260507184522 15 335 6.4 17.7 0.00 0.86 0.00 40 1003.9
20260507183023 15 298 3.2 19.3 0.00 0.86 0.00 43 1003.8
20260507181520 15 284 3.2 22.5 0.00 0.86 0.00 51 1003.9
20260507180035 15 279 8.0 27.4 0.00 0.86 0.00 47 1003.8
20260507174520 15 5 6.4 17.7 0.00 0.89 0.00 48 1003.8
20260507173022 15 282 4.8 37.0 0.00 0.89 0.00 51 1004.0
20260507171512 14 271 4.8 19.3 0.00 0.89 0.00 56 1004.2
20260507170028 13 284 6.4 24.1 0.00 0.89 0.00 63 1004.3
20260507164509 13 278 3.2 17.7 0.00 0.89 0.00 67 1004.5
20260507163008 13 360 3.2 22.5 0.00 0.89 0.00 61 1004.5
20260507161508 14 226 6.4 17.7 0.00 0.89 0.00 61 1004.5
20260507160007 13 311 9.7 22.5 0.00 0.89 0.00 59 1004.7
20260507154508 14 340 6.4 22.5 0.00 0.89 0.00 61 1004.8
20260507153005 13 287 3.2 14.5 0.00 0.89 0.00 65 1005.0
20260507151504 13 234 6.4 16.1 0.00 0.89 0.00 64 1005.1
20260507150005 14 303 6.4 16.1 0.00 0.89 0.00 64 1005.1
20260507144501 13 167 8.0 17.7 0.00 0.89 0.00 60 1005.1
20260507143108 13 277 8.0 19.3 0.00 0.89 0.00 61 1005.1
20260507141603 13 360 4.8 16.1 0.00 0.89 0.00 65 1004.9
20260507134555 13 360 3.2 16.1 0.00 0.89 0.00 65 1005.1
20260507133053 12 286 6.4 16.1 0.00 0.89 0.00 66 1005.2
20260507131552 12 321 4.8 14.5 0.00 0.89 0.00 65 1005.3
20260507130100 12 262 4.8 12.9 0.00 0.89 0.00 68 1005.3
20260507124551 11 305 4.8 19.3 0.00 0.89 0.00 72 1005.5
20260507123040 11 350 4.8 9.7 0.00 0.89 0.00 77 1005.5
20260507121539 10 22 1.6 11.3 0.00 0.89 0.00 83 1005.6
20260507120038 10 286 1.6 8.0 0.00 0.89 0.00 88 1005.6
20260507114535 9 273 1.6 9.7 0.00 0.89 0.00 90 1005.7
20260507113035 8 301 0.0 6.4 0.00 0.89 0.00 94 1005.5
20260507111534 8 360 0.0 4.8 0.00 0.89 0.00 95 1005.4
20260507110039 7 360 0.0 6.4 0.00 0.89 0.00 95 1005.6
20260507104536 7 360 0.0 0.0 0.00 0.89 0.00 95 1005.6
20260507103046 7 360 0.0 8.0 0.00 0.89 0.00 96 1005.1
20260507101531 7 360 1.6 6.4 0.00 0.89 0.00 96 1005.7
20260507100030 7 360 0.0 1.6 0.00 0.89 0.00 96 1005.5
20260507094531 7 360 0.0 6.4 0.00 0.89 0.00 95 1005.4
20260507093028 7 360 0.0 9.7 0.00 0.89 0.00 95 1005.5
20260507091534 7 360 1.6 8.0 0.00 0.89 0.00 95 1005.2
20260507090027 7 360 1.6 16.1 0.00 0.89 0.00 95 1004.5
20260507084537 7 360 0.0 6.4 0.00 0.89 0.00 95 1004.8
20260507083020 8 360 1.6 4.8 0.00 0.89 0.00 95 1004.7
20260507081519 8 360 0.0 8.0 0.00 0.89 0.00 95 1005.0
20260507080016 8 360 1.6 8.0 0.00 0.89 0.00 95 1004.6
20260507074515 8 360 1.6 14.5 0.00 0.89 0.00 95 1004.2
20260507073012 8 360 1.6 9.7 0.00 0.89 0.00 95 1004.3
20260507071508 8 360 0.0 4.8 0.00 0.89 0.00 96 1004.3
20260507070011 8 360 3.2 11.3 0.00 0.89 0.00 96 1004.2
20260507064506 8 360 1.6 11.3 0.00 0.89 0.00 97 1003.9
20260507063005 8 360 0.0 6.4 0.00 0.89 0.00 97 1003.7
20260507061603 8 360 3.2 8.0 0.00 0.89 0.00 97 1004.1
20260507060104 9 360 0.0 8.0 0.00 0.89 0.00 97 1003.8
20260507054615 9 360 0.0 8.0 0.00 0.89 0.00 97 1003.6
20260507053107 9 360 3.2 14.5 0.00 0.89 0.00 97 1003.7
20260507051558 9 360 3.2 8.0 0.00 0.89 0.00 97 1003.6
20260507050056 10 360 3.2 12.9 0.00 0.89 0.00 97 1003.6
20260507044556 10 360 1.6 12.9 0.03 0.89 0.00 97 1003.7
20260507043046 10 360 3.2 11.3 0.08 0.89 0.00 97 1003.5
20260507041557 11 360 0.0 9.7 0.08 0.89 0.00 97 1003.1
20260507040043 11 360 1.6 11.3 0.08 0.89 0.00 97 1003.3
20260507034539 11 360 1.6 11.3 0.08 0.86 0.36 97 1003.3
20260507033038 11 360 4.8 12.9 0.03 0.81 0.30 97 1003.3
20260507031537 12 360 3.2 19.3 0.05 0.81 0.30 98 1003.2
20260507030031 12 360 3.2 12.9 0.08 0.81 0.30 98 1002.8
20260507024533 13 360 4.8 14.5 0.05 0.79 0.28 98 1002.7
20260507023023 14 258 1.6 11.3 0.05 0.79 0.28 98 1002.7
20260507021530 14 239 4.8 12.9 0.03 0.76 0.25 98 1002.7
20260507020023 14 233 4.8 17.7 0.00 0.71 0.23 98 1002.7
20260507014523 14 231 6.4 14.5 0.00 0.71 0.23 98 1002.8
20260507013022 14 230 6.4 19.3 0.00 0.71 0.23 98 1002.7
20260507011523 15 224 6.4 14.5 0.00 0.71 0.23 98 1002.8
20260507010119 15 251 8.0 17.7 0.00 0.71 0.23 98 1002.7